Weather in Moree

Australia     29°27′57″S   149°50′30″E
temp.,
°C
wind,
m/s
gust,
m/s
humid.,
%
clouds,
%
prec.,
mm/h
press.,
hPa
HPBL,
m
20 may, fri
fri2001:00+14e3345100 0.0 102346
04:00+14e3566100 0.0 102498
07:00+15e5973100 0.0 1026295
10:00+17e61162100 0.1 1026577
13:00+19e4661100 0.0 1025862
16:00+15sse3582100 1.5 1025152
19:00+16sse227560 0.5 102725
22:00+14ese487478 0.5 1027135
21 may, sat
sat2101:00+13ese487898 0.0 1027154
04:00+13se4780100 0.0 1026110
07:00+13se478099 0.0 1027150
10:00+15se367398 0.0 1027276
13:00+15e2574100 0.1 1025178
16:00+14e3781100 0.1 1024216
19:00+15e3679100 0.0 1025150
22:00+15e3579100 0.0 1025121
22 may, sun
sun2201:00+15se237698 0.0 102485
04:00+14se3472100 0.0 102395
07:00+15se357184 0.0 1024119
10:00+16se1268100 0.0 1025129
13:00+17ese3561100 0.1 1023680
16:00+17ese5668100 0.2 1023498
19:00+15se487994 0.3 1024243
22:00+14se3677100 0.3 1024178
23 may, mon
mon2301:00+15se3774100 0.0 1024241
04:00+14ese367439 0.0 1023170
07:00+13ese46795 0.0 1024101
10:00+18e575454 0.0 1025804
13:00+20e3348100 0.0 10231399
16:00+20ssw114754 0.0 1022867
19:00+17ese336380 0.2 102348
22:00+16e61076100 0.3 1024332
24 may, tue
tue2401:00+16e497097 0.0 1024315
04:00+15ene237493 0.0 102358
07:00+14e357799 0.1 102492
10:00+18ese3462100 0.4 1025503
13:00+20se335179 0.0 10221353
16:00+20sse335286 0.1 1021997
19:00+16sse346791 0.0 102254
22:00+15ene5117229 0.0 1023306